Regional Weather Roundup
Issued by NWS

Home | Current Version | Previous Version | Graphics & Text | Print | Product List | Glossary On
Versions: 1 2 3 4 5 6 7 8 9 10 11 12 13 14 15 16 17 18 19 20 21 22 23 24 25 26 27 28 29 30 31 32 33 34 35 36 37 38 39 40 41 42 43 44 45 46 47 48 49 50
000
ASUS43 KIND 091909
RWRIN

WEATHER ROUNDUP FOR INDIANA
NATIONAL WEATHER SERVICE INDIANAPOLIS IN
300 PM EDT WED JUL 09 2014

NOTE: "FAIR" INDICATES FEW OR NO CLOUDS BELOW 12,000 FEET WITH NO
SIGNIFICANT WEATHER AND/OR OBSTRUCTIONS TO VISIBILITY.

* - STATION DOES NOT REPORT WEATHER SUCH AS PRECIPITATION OR FOG.

+ - STATION NOT QUALITY CONTROLLED BY THE NATIONAL WEATHER SERVICE.
    USE DATA WITH CAUTION...ESPECIALLY DEWPOINT AND RELATIVE
    HUMIDITY OBSERVATIONS.

INZ001>003-010>013-019-020-092000-
NORTHWEST INDIANA

CITY           SKY/WX    TMP DP  RH WIND       PRES   REMARKS
GARY /AIRPORT/ MOSUNNY   75  61  60 NE9       29.96S
KNOX *+        MOSUNNY   75  57  53 N10G17    29.95S
LA PORTE +     SUNNY     73  55  53 N6        29.97S
MICHIGAN CITY+ SUNNY     72  52  49 N7        29.97S
MONTICELLO +   MOSUNNY   78  59  52 W10       29.94S
RENSSELAER +   MOSUNNY   77  55  47 W9G17     29.96R
VALPARAISO     PTSUNNY   77  58  51 N9        29.96S

$$

LMZ046-743>745-092000-
SOUTHERN LAKE MICHIGAN

STATION/POSITION TIME  TEMP WIND        PRES
                       AIR  DIR/SP/G
                 (UTC) (F)  (DEG/KT/KT) (MB)
MICHIGAN CITY    1900   65   30/ 10/ 11   N/A

$$

INZ004-005-014>016-021>024-092000-
NORTH CENTRAL INDIANA

CITY           SKY/WX    TMP DP  RH WIND       PRES   REMARKS
ELKHART        MOSUNNY   73  54  49 NW6G12    29.97R
GOSHEN         PTSUNNY   76  57  51 NW12      29.95R
LOGANSPORT +   MOSUNNY   79  54  41 W10       29.95S
PERU/GRISSOM   SUNNY     79  60  51 W14       29.95R
ROCHESTER +    MOSUNNY   79  59  50 N10       29.95R
SOUTH BEND     MOSUNNY   75  55  49 NW12G18   29.97R
WARSAW +       PTSUNNY   75  59  57 N8        29.94S

$$

INZ006>009-017-018-025>027-092000-
NORTHEAST INDIANA

CITY           SKY/WX    TMP DP  RH WIND       PRES   REMARKS
ANGOLA *+      MOSUNNY   79  57  47 NW13      29.94R
AUBURN +       MOSUNNY   79  55  44 W12       29.94R
FORT WAYNE     PTSUNNY   80  54  40 NW12      29.93S
HUNTINGTON +   PTSUNNY   77  60  55 W10G16    29.93S

$$

INZ028-029-035-036-043>045-051>053-092000-
WEST CENTRAL INDIANA

CITY           SKY/WX    TMP DP  RH WIND       PRES   REMARKS
GREENCASTLE +  MOSUNNY   79  63  57 W5G17     29.98S
LAFAYETTE      MOSUNNY   79  55  43 NW12G21   29.95S
TERRE HAUTE    PTSUNNY   77  61  57 NW10      29.97S

$$

INZ030>032-037>040-046>048-054>057-064-065-092000-
CENTRAL INDIANA

CITY           SKY/WX    TMP DP  RH WIND       PRES   REMARKS
ANDERSON       MOSUNNY   77  57  50 W6G23     29.97S
CP ATTERBURY + CLOUDY    79  59  50 W5        29.97S
COLUMBUS       PTSUNNY   81  59  47 SW10      29.97
INDIANAPOLIS   PTSUNNY   79  59  50 W13       29.96S
-EAGLE CREEK   PTSUNNY   78  58  49 W13       29.95F
KOKOMO *+      MOSUNNY   81  57  44 NW14G21   29.95S
MARION +       MOSUNNY   77  56  48 NW14G20   29.96R
MT COMFORT *+  MOSUNNY   79  59  50 W13       29.96S
SHELBYVILLE    PTSUNNY   80  62  54 W10       29.95F
ZIONSVILLE +   MOSUNNY   78  56  46 NW8G18    29.97S

$$

INZ033-034-041-042-049-050-058-059-092000-
EAST CENTRAL INDIANA

CITY           SKY/WX    TMP DP  RH WIND       PRES   REMARKS
MUNCIE         MOSUNNY   79  59  50 NW14      29.95S

$$

INZ060-061-067>069-081>083-085>088-092000-
SOUTHWEST INDIANA

CITY           SKY/WX    TMP DP  RH WIND       PRES   REMARKS
EVANSVILLE     MOSUNNY   84  58  40 NW8       29.99S
HUNTINGBURG *+ MOSUNNY   84  61  45 NW12      29.99S
WASHINGTON +   MOSUNNY   83  62  50 W10       29.97S

$$

INZ062-063-066-070>080-084-089>092-092000-
SOUTH CENTRAL AND SOUTHEAST INDIANA

CITY           SKY/WX    TMP DP  RH WIND       PRES   REMARKS
BEDFORD +      MOSUNNY   82  55  39 W3        29.98
BLOOMINGTON    PTSUNNY   80  62  54 W9        29.97F

$$




USA.gov is the U.S. government's official web portal to all federal, state and local government web resources and services.